| time (UTC) | temp C | wind direction | speed KPH | gust KPH | rain 1hr cm | rain 24hr cm | rain mn cm | humidity % | barometer mb |
| 20260903124635 | 22 | 97 | 0.0 | 4.8 | 0.00 | 3.40 | 0.00 | 90 | 1013.2 |
| 20260903123126 | 21 | 54 | 0.0 | 3.2 | 0.00 | 3.40 | 0.00 | 91 | 1013.0 |
| 20260903121636 | 21 | 65 | 0.0 | 1.6 | 0.00 | 3.40 | 0.00 | 92 | 1012.8 |
| 20260903120130 | 21 | 81 | 0.0 | 0.0 | 0.00 | 3.40 | 0.00 | 93 | 1012.8 |
| 20260903114647 | 21 | 59 | 0.0 | 0.0 | 0.00 | 3.40 | 0.00 | 93 | 1012.7 |
| 20260903113144 | 21 | 58 | 0.0 | 3.2 | 0.00 | 3.40 | 0.00 | 93 | 1012.5 |
| 20260903111631 | 20 | 66 | 0.0 | 1.6 | 0.00 | 3.40 | 0.00 | 94 | 1012.4 |
| 20260903110126 | 20 | 63 | 0.0 | 0.0 | 0.00 | 3.40 | 0.00 | 95 | 1012.4 |
| 20260903104645 | 20 | 75 | 0.0 | 0.0 | 0.00 | 3.40 | 0.00 | 95 | 1012.3 |
| 20260903103139 | 20 | 75 | 0.0 | 0.0 | 0.00 | 3.40 | 0.00 | 95 | 1012.2 |
| 20260903101635 | 20 | 75 | 0.0 | 0.0 | 0.00 | 3.40 | 0.00 | 96 | 1012.0 |
| 20260903100131 | 20 | 56 | 0.0 | 0.0 | 0.00 | 3.40 | 0.00 | 96 | 1012.1 |
| 20260903094627 | 20 | 78 | 0.0 | 1.6 | 0.00 | 3.40 | 0.00 | 97 | 1012.2 |
| 20260903093123 | 20 | 81 | 0.0 | 0.0 | 0.00 | 3.40 | 0.00 | 97 | 1012.1 |
| 20260903091700 | 20 | 80 | 0.0 | 1.6 | 0.00 | 3.40 | 0.00 | 97 | 1012.3 |
| 20260903090135 | 20 | 81 | 0.0 | 1.6 | 0.00 | 3.40 | 0.00 | 97 | 1012.2 |
| 20260903084637 | 20 | 81 | 0.0 | 6.4 | 0.00 | 3.40 | 0.00 | 98 | 1012.1 |
| 20260903083134 | 20 | 110 | 0.0 | 0.0 | 0.00 | 3.40 | 0.00 | 98 | 1012.2 |
| 20260903081632 | 20 | 110 | 0.0 | 0.0 | 0.00 | 3.40 | 0.00 | 97 | 1012.2 |
| 20260903080129 | 20 | 83 | 0.0 | 0.0 | 0.00 | 3.40 | 0.00 | 97 | 1012.3 |
| 20260903074627 | 20 | 33 | 0.0 | 4.8 | 0.00 | 3.40 | 0.00 | 98 | 1012.1 |
| 20260903073123 | 20 | 65 | 0.0 | 1.6 | 0.00 | 3.40 | 0.00 | 98 | 1012.5 |
| 20260903071640 | 19 | 69 | 0.0 | 1.6 | 0.00 | 3.40 | 0.00 | 98 | 1012.5 |
| 20260903070123 | 19 | 115 | 0.0 | 0.0 | 0.00 | 3.40 | 0.00 | 98 | 1012.7 |
| 20260903064635 | 19 | 115 | 0.0 | 0.0 | 0.00 | 3.40 | 0.00 | 98 | 1012.6 |
| 20260903063129 | 19 | 115 | 0.0 | 0.0 | 0.00 | 3.40 | 0.00 | 98 | 1012.3 |
| 20260903061624 | 19 | 115 | 0.0 | 0.0 | 0.00 | 3.40 | 0.00 | 98 | 1012.4 |
| 20260903060121 | 19 | 115 | 0.0 | 0.0 | 0.00 | 3.40 | 0.00 | 97 | 1012.4 |
| 20260903054659 | 19 | 116 | 0.0 | 0.0 | 0.00 | 3.40 | 0.00 | 97 | 1012.6 |
| 20260903053158 | 19 | 116 | 0.0 | 0.0 | 0.00 | 3.40 | 0.00 | 97 | 1012.3 |
| 20260903051636 | 19 | 116 | 0.0 | 0.0 | 0.00 | 3.40 | 0.00 | 97 | 1012.5 |
| 20260903050140 | 19 | 116 | 0.0 | 3.2 | 0.00 | 3.40 | 0.00 | 97 | 1012.4 |
| 20260903044637 | 19 | 113 | 0.0 | 0.0 | 0.00 | 3.40 | 0.00 | 97 | 1012.1 |
| 20260903043124 | 19 | 93 | 0.0 | 0.0 | 0.00 | 3.40 | 0.00 | 97 | 1012.1 |
| 20260903041643 | 19 | 355 | 0.0 | 0.0 | 0.00 | 3.40 | 0.00 | 97 | 1012.4 |
| 20260903040131 | 19 | 355 | 0.0 | 1.6 | 0.00 | 3.40 | 0.00 | 96 | 1012.9 |
| 20260903034621 | 19 | 34 | 1.6 | 4.8 | 0.00 | 3.40 | 3.40 | 96 | 1013.0 |
| 20260903033142 | 19 | 68 | 1.6 | 6.4 | 0.00 | 3.40 | 3.40 | 96 | 1013.0 |
| 20260903031635 | 19 | 57 | 1.6 | 16.1 | 0.03 | 3.40 | 3.40 | 96 | 1011.4 |
| 20260903030132 | 19 | 311 | 4.8 | 9.7 | 0.08 | 3.40 | 3.40 | 96 | 1011.0 |
| 20260903024629 | 20 | 46 | 3.2 | 9.7 | 0.13 | 3.40 | 3.40 | 95 | 1011.6 |
| 20260903023127 | 20 | 32 | 3.2 | 11.3 | 0.18 | 3.40 | 3.40 | 95 | 1012.2 |
| 20260903021624 | 21 | 58 | 4.8 | 9.7 | 0.23 | 3.38 | 3.38 | 95 | 1012.6 |
| 20260903020158 | 21 | 17 | 3.2 | 6.4 | 0.51 | 3.33 | 3.33 | 95 | 1012.1 |
| 20260903014633 | 21 | 59 | 3.2 | 8.0 | 0.46 | 3.28 | 3.28 | 95 | 1013.3 |
| 20260903013130 | 22 | 354 | 3.2 | 9.7 | 0.41 | 3.23 | 3.23 | 94 | 1012.6 |
| 20260903011629 | 22 | 349 | 1.6 | 6.4 | 0.33 | 3.15 | 3.15 | 93 | 1013.5 |
| 20260903010131 | 22 | 93 | 0.0 | 1.6 | 0.00 | 2.82 | 2.82 | 90 | 1014.4 |
| 20260903004626 | 23 | 69 | 0.0 | 1.6 | 0.00 | 2.82 | 2.82 | 89 | 1013.7 |
| 20260903003139 | 23 | 56 | 1.6 | 8.0 | 0.00 | 2.82 | 2.82 | 88 | 1013.0 |
| 20260903001628 | 23 | 79 | 0.0 | 12.9 | 0.00 | 2.82 | 2.82 | 88 | 1012.7 |
| 20260903000124 | 23 | 59 | 0.0 | 4.8 | 0.00 | 2.82 | 2.82 | 88 | 1012.3 |
| 20260902234622 | 23 | 75 | 1.6 | 14.5 | 0.00 | 2.82 | 2.82 | 88 | 1012.3 |
| 20260902233137 | 23 | 20 | 0.0 | 16.1 | 0.00 | 2.82 | 2.82 | 87 | 1012.4 |
| 20260902231622 | 23 | 20 | 3.2 | 14.5 | 0.00 | 2.82 | 2.82 | 87 | 1012.5 |
| 20260902230137 | 23 | 51 | 4.8 | 8.0 | 0.00 | 2.82 | 2.82 | 86 | 1012.3 |
| 20260902224634 | 24 | 36 | 3.2 | 16.1 | 0.00 | 2.82 | 2.82 | 85 | 1011.8 |
| 20260902223122 | 25 | 329 | 3.2 | 6.4 | 0.00 | 2.82 | 2.82 | 85 | 1011.9 |
| 20260902221622 | 25 | 32 | 3.2 | 11.3 | 0.00 | 2.82 | 2.82 | 84 | 1012.0 |
| 20260902220200 | 25 | 36 | 1.6 | 11.3 | 0.00 | 2.82 | 2.82 | 83 | 1012.7 |
| 20260902214648 | 26 | 37 | 1.6 | 9.7 | 0.00 | 2.82 | 2.82 | 82 | 1013.8 |
| 20260902213121 | 26 | 319 | 1.6 | 8.0 | 0.00 | 2.82 | 2.82 | 82 | 1014.2 |
| 20260902211622 | 26 | 69 | 0.0 | 6.4 | 0.00 | 2.82 | 2.82 | 82 | 1014.4 |
| 20260902210141 | 26 | 4 | 3.2 | 11.3 | 0.00 | 2.82 | 2.82 | 80 | 1014.0 |
| 20260902204637 | 27 | 337 | 1.6 | 8.0 | 0.00 | 2.82 | 2.82 | 80 | 1014.1 |
| 20260902203123 | 27 | 86 | 1.6 | 9.7 | 0.00 | 2.82 | 2.82 | 78 | 1014.4 |
| 20260902201644 | 27 | 63 | 3.2 | 9.7 | 0.00 | 2.82 | 2.82 | 77 | 1014.1 |
| 20260902200152 | 27 | 54 | 3.2 | 12.9 | 0.00 | 2.82 | 2.82 | 77 | 1013.8 |
| 20260902194630 | 27 | 342 | 3.2 | 8.0 | 0.00 | 2.82 | 2.82 | 77 | 1013.7 |
| 20260902193127 | 27 | 346 | 4.8 | 11.3 | 0.00 | 2.82 | 2.82 | 76 | 1013.9 |
| 20260902191624 | 27 | 65 | 4.8 | 9.7 | 0.00 | 2.82 | 2.82 | 76 | 1014.0 |
| 20260902190126 | 27 | 338 | 1.6 | 6.4 | 0.00 | 2.82 | 2.82 | 77 | 1013.9 |
| 20260902183134 | 27 | 58 | 0.0 | 6.4 | 0.00 | 2.82 | 2.82 | 77 | 1014.5 |
| 20260902181626 | 27 | 340 | 3.2 | 9.7 | 0.00 | 2.82 | 2.82 | 76 | 1014.4 |
| 20260902174630 | 25 | 70 | 1.6 | 4.8 | 0.00 | 2.82 | 2.82 | 84 | 1014.5 |
| 20260902173138 | 24 | 127 | 0.0 | 8.0 | 0.03 | 2.82 | 2.82 | 91 | 1014.4 |
| 20260902171646 | 22 | 332 | 3.2 | 8.0 | 0.03 | 2.82 | 2.82 | 95 | 1014.5 |
| 20260902170142 | 22 | 330 | 3.2 | 8.0 | 0.03 | 2.82 | 2.82 | 98 | 1014.6 |
| 20260902164627 | 21 | 49 | 1.6 | 6.4 | 0.08 | 2.82 | 2.82 | 98 | 1014.5 |
| 20260902163142 | 20 | 59 | 1.6 | 3.2 | 0.18 | 2.79 | 2.79 | 98 | 1014.9 |
| 20260902161654 | 20 | 61 | 1.6 | 4.8 | 0.38 | 2.79 | 2.79 | 98 | 1015.1 |
| 20260902160129 | 20 | 28 | 3.2 | 4.8 | 0.86 | 2.79 | 2.79 | 98 | 1015.5 |
| 20260902154622 | 19 | 61 | 1.6 | 4.8 | 1.83 | 2.74 | 2.74 | 98 | 1016.0 |
| 20260902153135 | 19 | 39 | 0.0 | 3.2 | 1.91 | 2.62 | 2.62 | 97 | 1017.2 |
| 20260902151630 | 20 | 70 | 1.6 | 8.0 | 1.91 | 2.41 | 2.41 | 98 | 1018.1 |
| 20260902150146 | 20 | 99 | 0.0 | 8.0 | 1.80 | 1.88 | 1.88 | 98 | 1018.6 |
| 20260902144640 | 20 | 72 | 0.0 | 1.6 | 0.89 | 0.91 | 0.91 | 98 | 1017.5 |
| 20260902143135 | 20 | 122 | 0.0 | 0.0 | 0.71 | 0.71 | 0.71 | 98 | 1016.6 |
| 20260902141630 | 20 | 122 | 0.0 | 4.8 | 0.48 | 0.48 | 0.48 | 97 | 1017.3 |
| 20260902140136 | 20 | 157 | 0.0 | 3.2 | 0.08 | 0.08 | 0.08 | 98 | 1016.4 |
| 20260902134633 | 20 | 134 | 0.0 | 1.6 | 0.03 | 0.03 | 0.03 | 97 | 1015.8 |
| 20260902133131 | 20 | 134 | 0.0 | 1.6 | 0.00 | 0.00 | 0.00 | 98 | 1016.1 |
| 20260902131646 | 20 | 134 | 1.6 | 3.2 | 0.00 | 0.00 | 0.00 | 98 | 1016.2 |
| 20260902130138 | 20 | 141 | 0.0 | 0.0 | 0.00 | 0.00 | 0.00 | 98 | 1015.9 |